星链-1646 (STARLINK-1646 )

导读 | 豆包AI

STARLINK-1646是美国SpaceX星链计划中的卫星,于2020年9月3日发射升空,归属美国所有。它属于星链低轨互联网星座组网卫星,旨在为全球提供高速卫星互联网服务,运行在近地轨道,通过多星组网实现全球覆盖,为偏远地区、移动场景等提供网络接入支持,推进SpaceX卫星互联网布局落地。

基本信息
目录编号:
46351
目录名称:
STARLINK-1646
国际标识:
2020-062AC
轨道中心:
EARTH
卫星名称:
星链-1646
卫星全名:
星链-1646 (STARLINK-1646 )
卫星状态:
在轨 (已飞行2039 天)
发射日期:
2020-09-03 UTC
国别 :
美国 (US)
星等 :
--
轨道信息
数据来源 国际轨道数据
星历时间: 2026-04-04T04:00:02+0800
7小时前
查看轨道信息
半长轴: 6762.328km
偏心率: 0.0004577
轨道倾角: 53.043°
近地点辐角 298.248°
升交点赤经 213.131°
平近点角 96.661°
近地点: 381.095km
远地点: 387.287km
周期: 92.237分钟
每日圈数: 15.611996
详细信息
固有亮度:
5
最大亮度:
2.5
卫星平台:
Starlink V1.0
覆盖范围:
全球
运营商:
太空探索技术公司
运营商所在国:
美国
制造商(研发单位):
太空探索技术公司
制造商所在国:
美国
使用方式:
暂无
卫星简介
星链(Starlink)计划是由太空探索技术公司(SpaceX)提出的一个巨型低轨卫星互联网星座项目,计划在2019年至2024年间在太空搭建由约1.2万颗卫星组成的“星链”网络,其中1584颗将部署在地球上空550千米处的近地轨道,并从2020年开始工作。该卫星仍在工作。
2D轨道图
3D轨道图
轨道高度分析图
轨道倾角分析图
轨道综合分析图
查看轨道综合分析图